• In Sweden
  • List of Countries
  • For 7 days
  • Water Temperature
  • Satellite Maps
  • Weather Map
  • Weather Widgets
  • user-avatar
    Login

    Hourly Weather Ivankino

    Today, 26 September, Wednesday

    Time Temperature Precipitation Wind Pressure Humidity
    00:00 +13°C° 0 mm 1 mps 758 mmHg 97%
    01:00 +13°C° 0 mm 1 mps 758 mmHg 97%
    02:00 +12°C° 0 mm 1 mps 758 mmHg 97%
    03:00 +12°C° 0 mm 1 mps 758 mmHg 97%
    04:00 +12°C° 0 mm 2 mps 758 mmHg 97%
    05:00 +12°C° 0 mm 2 mps 759 mmHg 97%
    06:00 +13°C° 0 mm 2 mps 759 mmHg 96%
    07:00 +14°C° 0 mm 2 mps 759 mmHg 94%
    08:00 +15°C° 0 mm 2 mps 759 mmHg 93%
    09:00 +15°C° 0 mm 2 mps 759 mmHg 92%
    10:00 +16°C° 0 mm 2 mps 759 mmHg 90%
    11:00 +17°C° 0 mm 2 mps 759 mmHg 89%
    12:00 +17°C° 0 mm 2 mps 759 mmHg 87%
    13:00 +18°C° 0 mm 2 mps 759 mmHg 85%
    14:00 +18°C° 0 mm 2 mps 759 mmHg 84%
    15:00 +18°C° 0 mm 2 mps 759 mmHg 86%
    16:00 +17°C° 0 mm 2 mps 760 mmHg 89%
    17:00 +16°C° 0 mm 1 mps 760 mmHg 92%
    18:00 +16°C° 0 mm 2 mps 760 mmHg 93%
    19:00 +15°C° 0 mm 2 mps 760 mmHg 94%
    20:00 +14°C° 0 mm 2 mps 760 mmHg 95%
    21:00 +14°C° 0 mm 2 mps 760 mmHg 95%
    22:00 +14°C° 0 mm 2 mps 760 mmHg 95%
    23:00 +14°C° 0 mm 2 mps 760 mmHg 96%

    Tomorrow, 27 September, Thursday

    Time Temperature Precipitation Wind Pressure Humidity
    00:00 +13°C° 0 mm 2 mps 760 mmHg 96%
    01:00 +13°C° 0 mm 2 mps 760 mmHg 96%
    02:00 +13°C° 0 mm 2 mps 760 mmHg 96%
    03:00 +12°C° 0 mm 2 mps 760 mmHg 96%
    04:00 +12°C° 0 mm 2 mps 761 mmHg 95%
    05:00 +10°C° 0 mm 2 mps 761 mmHg 95%
    06:00 +12°C° 0 mm 2 mps 761 mmHg 91%
    07:00 +13°C° 0 mm 2 mps 761 mmHg 87%
    08:00 +14°C° 0 mm 2 mps 761 mmHg 83%
    09:00 +16°C° 0 mm 2 mps 761 mmHg 77%
    10:00 +17°C° 0 mm 2 mps 761 mmHg 70%
    11:00 +19°C° 0 mm 3 mps 761 mmHg 64%
    12:00 +19°C° 0 mm 3 mps 761 mmHg 61%
    13:00 +20°C° 0 mm 2 mps 761 mmHg 57%
    14:00 +21°C° 0 mm 2 mps 761 mmHg 54%
    15:00 +19°C° 0 mm 2 mps 761 mmHg 61%
    16:00 +17°C° 0 mm 2 mps 761 mmHg 69%
    17:00 +16°C° 0 mm 1 mps 761 mmHg 76%
    18:00 +15°C° 0 mm 1 mps 761 mmHg 79%
    19:00 +14°C° 0 mm 1 mps 761 mmHg 82%
    20:00 +13°C° 0 mm 1 mps 762 mmHg 85%
    21:00 +12°C° 0 mm 1 mps 762 mmHg 87%
    22:00 +11°C° 0 mm 1 mps 762 mmHg 88%
    23:00 +11°C° 0 mm 1 mps 762 mmHg 89%

    Day after tomorrow, 28 September, Friday

    Time Temperature Precipitation Wind Pressure Humidity
    00:00 +11°C° 0 mm 1 mps 762 mmHg 90%
    01:00 +10°C° 0 mm 1 mps 761 mmHg 91%
    02:00 +10°C° 0 mm 1 mps 761 mmHg 92%
    03:00 +10°C° 0 mm 1 mps 761 mmHg 92%
    04:00 +9°C° 0 mm 1 mps 761 mmHg 93%
    05:00 +8°C° 0 mm 2 mps 761 mmHg 94%
    06:00 +9°C° 0 mm 2 mps 761 mmHg 89%
    07:00 +12°C° 0 mm 2 mps 760 mmHg 85%
    08:00 +13°C° 0 mm 2 mps 760 mmHg 81%
    09:00 +14°C° 0 mm 3 mps 760 mmHg 74%
    10:00 +16°C° 0 mm 3 mps 759 mmHg 68%
    11:00 +18°C° 0 mm 3 mps 759 mmHg 62%
    12:00 +19°C° 0 mm 3 mps 758 mmHg 60%
    13:00 +19°C° 0 mm 4 mps 758 mmHg 58%
    14:00 +20°C° 0 mm 4 mps 757 mmHg 55%
    15:00 +18°C° 0 mm 4 mps 757 mmHg 63%
    16:00 +17°C° 0 mm 3 mps 757 mmHg 70%
    17:00 +14°C° 0 mm 3 mps 756 mmHg 77%
    18:00 +14°C° 0 mm 3 mps 756 mmHg 81%
    19:00 +13°C° 0 mm 3 mps 756 mmHg 85%
    20:00 +13°C° 0 mm 4 mps 756 mmHg 89%
    21:00 +13°C° 0 mm 4 mps 755 mmHg 91%
    22:00 +12°C° 0 mm 4 mps 755 mmHg 92%
    23:00 +12°C° 0 mm 4 mps 754 mmHg 94%

    29 September, Saturday

    Time Temperature Precipitation Wind Pressure Humidity
    00:00 +12°C° 0 mm 4 mps 753 mmHg 94%
    01:00 +12°C° 0 mm 4 mps 753 mmHg 95%
    02:00 +11°C° 0 mm 4 mps 752 mmHg 96%
    03:00 +11°C° 0 mm 4 mps 752 mmHg 96%
    04:00 +11°C° 0 mm 4 mps 752 mmHg 95%
    05:00 +11°C° 0 mm 4 mps 752 mmHg 95%
    06:00 +11°C° 0.5 mm 4 mps 752 mmHg 94%
    07:00 +11°C° 0.5 mm 4 mps 753 mmHg 92%
    08:00 +11°C° 0.5 mm 4 mps 753 mmHg 91%
    09:00 +11°C° 0.4 mm 4 mps 753 mmHg 86%
    10:00 +12°C° 0.4 mm 4 mps 754 mmHg 81%
    11:00 +12°C° 0.4 mm 4 mps 755 mmHg 76%
    12:00 +12°C° 0 mm 4 mps 755 mmHg 71%
    13:00 +13°C° 0 mm 4 mps 756 mmHg 66%
    14:00 +13°C° 0 mm 4 mps 756 mmHg 61%
    15:00 +12°C° 0 mm 4 mps 756 mmHg 64%
    16:00 +11°C° 0 mm 3 mps 757 mmHg 67%
    17:00 +10°C° 0 mm 3 mps 757 mmHg 70%
    18:00 +8°C° 0 mm 4 mps 757 mmHg 70%
    19:00 +8°C° 0 mm 4 mps 757 mmHg 71%
    20:00 +8°C° 0 mm 5 mps 757 mmHg 71%
    21:00 +8°C° 0.1 mm 5 mps 756 mmHg 70%
    22:00 +8°C° 0.1 mm 5 mps 756 mmHg 70%
    23:00 +9°C° 0.1 mm 5 mps 755 mmHg 69%

    30 September, Sunday

    Time Temperature Precipitation Wind Pressure Humidity
    00:00 +9°C° 0 mm 5 mps 755 mmHg 68%
    01:00 +9°C° 0 mm 5 mps 755 mmHg 67%
    02:00 +9°C° 0 mm 6 mps 755 mmHg 67%
    03:00 +8°C° 0 mm 6 mps 755 mmHg 68%
    04:00 +8°C° 0 mm 5 mps 755 mmHg 70%
    05:00 +8°C° 0 mm 5 mps 756 mmHg 72%
    06:00 +8°C° 0 mm 6 mps 756 mmHg 69%
    07:00 +8°C° 0 mm 6 mps 756 mmHg 66%
    08:00 +8°C° 0 mm 7 mps 757 mmHg 63%
    09:00 +9°C° 0 mm 7 mps 757 mmHg 58%
    10:00 +9°C° 0 mm 7 mps 758 mmHg 53%
    11:00 +9°C° 0 mm 6 mps 758 mmHg 49%
    12:00 +9°C° 0 mm 6 mps 758 mmHg 47%
    13:00 +9°C° 0 mm 6 mps 758 mmHg 46%
    14:00 +9°C° 0 mm 5 mps 759 mmHg 45%
    15:00 +8°C° 0 mm 4 mps 759 mmHg 50%
    16:00 +8°C° 0 mm 3 mps 759 mmHg 56%
    17:00 +7°C° 0 mm 2 mps 759 mmHg 61%
    18:00 +6°C° 0 mm 2 mps 759 mmHg 64%
    19:00 +6°C° 0 mm 2 mps 759 mmHg 66%
    20:00 +6°C° 0 mm 1 mps 759 mmHg 68%
    21:00 +6°C° 0 mm 1 mps 759 mmHg 67%
    22:00 +7°C° 0 mm 1 mps 759 mmHg 67%
    23:00 +7°C° 0 mm 1 mps 758 mmHg 66%

    1 October, Monday

    Time Temperature Precipitation Wind Pressure Humidity
    00:00 +7°C° 0.7 mm 1 mps 758 mmHg 73%
    01:00 +6°C° 0.7 mm 1 mps 758 mmHg 80%
    02:00 +6°C° 0.7 mm 1 mps 758 mmHg 86%
    03:00 +6°C° 0.6 mm 1 mps 757 mmHg 88%
    04:00 +5°C° 0.6 mm 0 mps 757 mmHg 89%
    05:00 +5°C° 0.6 mm 0 mps 757 mmHg 91%
    06:00 +5°C° 0.1 mm 0 mps 757 mmHg 89%
    07:00 +5°C° 0.1 mm 0 mps 756 mmHg 86%
    08:00 +6°C° 0.1 mm 0 mps 756 mmHg 84%
    09:00 +8°C° 0 mm 1 mps 756 mmHg 79%
    10:00 +9°C° 0 mm 1 mps 756 mmHg 74%
    11:00 +9°C° 0 mm 1 mps 755 mmHg 69%
    12:00 +9°C° 0.2 mm 1 mps 755 mmHg 71%
    13:00 +9°C° 0.2 mm 1 mps 755 mmHg 74%
    14:00 +8°C° 0.2 mm 1 mps 755 mmHg 76%
    15:00 +8°C° 0.6 mm 1 mps 754 mmHg 80%
    16:00 +7°C° 0.6 mm 1 mps 754 mmHg 85%
    17:00 +7°C° 0.6 mm 1 mps 754 mmHg 90%
    18:00 +6°C° 0.5 mm 1 mps 753 mmHg 90%
    19:00 +6°C° 0.5 mm 1 mps 753 mmHg 91%
    20:00 +6°C° 0.5 mm 1 mps 753 mmHg 92%
    21:00 +5°C° 0.4 mm 2 mps 753 mmHg 92%
    22:00 +5°C° 0.4 mm 2 mps 752 mmHg 92%
    23:00 +5°C° 0.4 mm 2 mps 752 mmHg 92%
    Show more